Regional Weather Roundup
Issued by NWS Cleveland, OH

Home | Current Version | Previous Version | Graphics & Text | Print | Product List | Glossary On
Versions: 1 2 3 4 5 6 7 8 9 10 11 12 13 14 15 16 17 18 19 20 21 22 23 24 25 26 27 28 29 30 31 32 33 34 35 36 37 38 39 40 41 42 43 44 45 46 47 48 49 50
000
ASUS41 KCLE 020402
RWRCLE
OHIO REGIONAL WEATHER ROUNDUP
NATIONAL WEATHER SERVICE CLEVELAND, OH
1100 PM EST SUN MAR 01 2015

NOTE: "FAIR" INDICATES FEW OR NO CLOUDS BELOW 12,000 FEET WITH NO
SIGNIFICANT WEATHER AND/OR OBSTRUCTIONS TO VISIBILITY.

OHZ001>008-015>018-024>027-034-035-043-044-020500-
   NORTHWEST OHIO

CITY           SKY/WX    TMP DP  RH WIND       PRES   REMARKS
DEFIANCE       CLOUDY    23  18  81 W5        30.29R WCI  17
FINDLAY        CLOUDY    21  18  88 W9        30.27R FOG     WCI  11
TOLEDO EXPRESS CLOUDY    19  17  92 W9        30.27R FOG     WCI   8
TOLEDO EXEC    CLOUDY    20  16  84 W9        30.28R FOG     WCI   9
LIMA           CLOUDY    25  20  81 W14       30.27R WCI  13
$$

OHZ009>014-019>023-028>033-038-089-020500-
   NORTHEAST OHIO

CITY           SKY/WX    TMP DP  RH WIND       PRES   REMARKS
CLE-HOPKINS    MOCLDY    21  18  88 W10       30.26R FOG     WCI  10
CLE-LAKEFRONT  MOCLDY    19  15  84 SW9       30.23S WCI   8
CUY CO. ARPT   CLOUDY    23  21  93 W9        30.22S WCI  13
LORAIN-ELYRIA  PTCLDY    21  19  92 W12       30.24R WCI   9
ASHTABULA      CLOUDY    23  19  85 W9        30.20R WCI  13
AKRON-CANTON   CLOUDY    28  24  85 W13       30.19R FOG     WCI  17
WOOSTER        PTCLDY    25  21  85 W15       30.22R WCI  13
MANSFIELD      CLOUDY    23  21  92 W8        30.22R FOG     WCI  14
YOUNGSTOWN     CLOUDY    28  24  85 W10       30.17R WCI  19
$$

OHZ042-051>053-060>062-070>072-077>081-020500-
  SOUTHWEST OHIO

CITY           SKY/WX    TMP DP  RH WIND       PRES   REMARKS
CINC-COVINGTON CLOUDY    33  29  85 W9        30.31R WCI  25
CINC-LUNKEN    CLOUDY    33  29  85 NW8       30.34R WCI  26
HAMILTON       CLOUDY    33  29  85 NW12      30.33R WCI  24
DAYTON         CLOUDY    29  24  82 W12       30.29R WCI  19
WRIGHT-PAT AFB CLOUDY    30  26  85 W9        30.29R WCI  21
DAYTON GENERAL CLOUDY    31  26  82 W10       30.29R WCI  22
WILMINGTON     CLOUDY    31  27  85 NW10      30.27S WCI  22
$$

OHZ036-037-039>041-045>050-054>059-063>069-073>076-082>088-020500-
  CENTRAL AND SOUTHEAST OHIO

CITY           SKY/WX    TMP DP  RH WIND       PRES   REMARKS
COLUMBUS       CLOUDY    31  30  96 NW12      30.26R WCI  22
OSU AIRPORT    CLOUDY    30  26  85 W10       30.25S FOG     WCI  21
BOLTON FIELD   NOT AVBL
RICKENBACK AFB NOT AVBL
NEWARK         CLOUDY    33  28  81 W7        30.24S WCI  27
MARION         PTCLDY    24  20  84 W9        30.26R FOG     WCI  14
LANCASTER      CLOUDY    33  30  88 W7        30.25F WCI  27
ZANESVILLE     CLOUDY    32  29  88 W7        30.23S WCI  26
NEW PHILLY     CLOUDY    34  28  79 W7        30.22S WCI  28
$$


USA.gov is the U.S. government's official web portal to all federal, state and local government web resources and services.